This is the latest recevied weather packets stored in our database for station/object OK2JF-6. If no packets are shown the sender has not sent any weather packets the latest 10 day(s).
| Time | Temp. | Humidity | Pressure | Rain* | Wind** | Luminosity | Snow |
|---|---|---|---|---|---|---|---|
| 1777739883 | 20° C | 33% | 1091.9 hPa | 0 mm | - | 60 W/m² | - |
| 1777739703 | 20° C | 34% | 1092.1 hPa | 0 mm | - | 62 W/m² | - |
| 1777739583 | 20° C | 33% | 1092.1 hPa | 0 mm | - | 64 W/m² | - |
| 1777739463 | 20° C | 33% | 1092.1 hPa | 0 mm | - | 66 W/m² | - |
| 1777739043 | 20.56° C | 32% | 1092.3 hPa | 0 mm | - | 73 W/m² | - |
| 1777738323 | 20.56° C | 33% | 1092.3 hPa | 0 mm | - | 86 W/m² | - |
| 1777737857 | 20.56° C | 32% | 1092.1 hPa | 0 mm | - | 96 W/m² | - |
| 1777737783 | 20.56° C | 32% | 1092.3 hPa | 0 mm | - | 97 W/m² | - |
| 1777736943 | 20.56° C | 32% | 1092.8 hPa | 0 mm | - | 114 W/m² | - |
| 1777736163 | 20.56° C | 32% | 1092.6 hPa | 0 mm | - | 133 W/m² | - |
| 1777735923 | 21.11° C | 31% | 1092.8 hPa | 0 mm | - | 138 W/m² | - |
| 1777735863 | 21.11° C | 31% | 1093 hPa | 0 mm | - | 139 W/m² | - |
| 1777735817 | 21.11° C | 31% | 1092.8 hPa | 0 mm | - | 140 W/m² | - |
| 1777735743 | 21.11° C | 32% | 1092.9 hPa | 0 mm | - | 142 W/m² | - |
| 1777735564 | 21.11° C | 31% | 1093 hPa | 0 mm | - | 147 W/m² | - |
| 1777735383 | 21.11° C | 31% | 1092.7 hPa | 0 mm | - | 151 W/m² | - |
| 1777735338 | 21.11° C | 31% | 1092.8 hPa | 0 mm | - | 153 W/m² | - |
| 1777734963 | 21.11° C | 31% | 1093 hPa | 0 mm | - | 163 W/m² | - |
| 1777734483 | 21.11° C | 31% | 1093.1 hPa | 0 mm | - | 176 W/m² | - |
| 1777734423 | 21.11° C | 31% | 1093 hPa | 0 mm | - | 177 W/m² | - |
| 1777734363 | 21.11° C | 31% | 1093.3 hPa | 0 mm | - | 179 W/m² | - |
| 1777734303 | 21.11° C | 31% | 1093.1 hPa | 0 mm | - | 181 W/m² | - |
| 1777734123 | 21.11° C | 31% | 1093.1 hPa | 0 mm | - | 153 W/m² | - |
| 1777733703 | 21.11° C | 30% | 1093.2 hPa | 0 mm | - | 198 W/m² | - |
| 1777733657 | 21.11° C | 30% | 1093.3 hPa | 0 mm | - | 199 W/m² | - |
* Rain latest hour (hover to see other rain measurements)
** Current wind speed in m/s (hover to see current wind gust speed)